This is the latest recevied weather packets stored in our database for station/object LZ1HCO-25. If no packets are shown the sender has not sent any weather packets the latest 10 day(s).
| Time | Temp. | Humidity | Pressure | Rain* | Wind** | Luminosity | Snow |
|---|---|---|---|---|---|---|---|
| 1778136519 | 20° C | 67% | 969 hPa | - | - | 0 W/m² | - |
| 1778136208 | 20° C | 67% | 969 hPa | - | - | 0 W/m² | - |
| 1778135896 | 19.44° C | 67% | 969 hPa | - | - | 0 W/m² | - |
| 1778135585 | 19.44° C | 68% | 969 hPa | - | - | 0 W/m² | - |
| 1778135274 | 19.44° C | 70% | 969 hPa | - | - | 0 W/m² | - |
| 1778134962 | 18.89° C | 73% | 969 hPa | - | - | 0 W/m² | - |
| 1778134651 | 18.89° C | 73% | 969 hPa | - | - | 0 W/m² | - |
| 1778134340 | 18.33° C | 78% | 969 hPa | - | - | 0 W/m² | - |
| 1778134028 | 18.33° C | 82% | 969 hPa | - | - | 0 W/m² | - |
| 1778133717 | 18.33° C | 91% | 969 hPa | - | - | 0 W/m² | - |
| 1778133405 | 17.78° C | 99% | 969 hPa | - | - | 0 W/m² | - |
| 1778133094 | 17.22° C | 99% | 969 hPa | - | - | 0 W/m² | - |
| 1778132783 | 15.56° C | 99% | 969 hPa | - | - | 0 W/m² | - |
| 1778132472 | 15.56° C | 99% | 969 hPa | - | - | 0 W/m² | - |
| 1778132160 | 15° C | 99% | 969 hPa | - | - | 0 W/m² | - |
| 1778131884 | 15° C | 99% | 969 hPa | - | - | 0 W/m² | - |
| 1778131572 | 15° C | 99% | 969 hPa | - | - | 0 W/m² | - |
| 1778131261 | 15° C | 99% | 969 hPa | - | - | 0 W/m² | - |
| 1778130950 | 15° C | 99% | 969 hPa | - | - | 0 W/m² | - |
| 1778130638 | 15.56° C | 99% | 969 hPa | - | - | 0 W/m² | - |
| 1778130327 | 15° C | 99% | 969 hPa | - | - | 0 W/m² | - |
| 1778130016 | 15° C | 99% | 969 hPa | - | - | 0 W/m² | - |
| 1778129704 | 14.44° C | 99% | 969 hPa | - | - | 0 W/m² | - |
| 1778129393 | 14.44° C | 99% | 969 hPa | - | - | 0 W/m² | - |
| 1778129082 | 14.44° C | 99% | 969 hPa | - | - | 0 W/m² | - |
* Rain since midnight (hover to see other rain measurements)
** Current wind speed in m/s (hover to see current wind gust speed)